EN

Hourly Weather Casas Adobes

Today, 15 April, Thursday

Time Temperature Precipitation Wind Pressure Humidity
00:00 +19°C° 0 mm 3 mps 695 mmHg 18%
01:00 +19°C° 0 mm 2 mps 694 mmHg 19%
02:00 +18°C° 0 mm 2 mps 694 mmHg 20%
03:00 +18°C° 0 mm 2 mps 694 mmHg 22%
04:00 +17°C° 0 mm 2 mps 694 mmHg 23%
05:00 +17°C° 0 mm 2 mps 694 mmHg 24%
06:00 +18°C° 0 mm 2 mps 694 mmHg 23%
07:00 +19°C° 0 mm 2 mps 695 mmHg 22%
08:00 +20°C° 0 mm 2 mps 695 mmHg 21%
09:00 +21°C° 0 mm 2 mps 695 mmHg 18%
10:00 +22°C° 0 mm 3 mps 696 mmHg 16%
11:00 +24°C° 0 mm 3 mps 696 mmHg 14%
12:00 +25°C° 0 mm 5 mps 695 mmHg 12%
13:00 +26°C° 0 mm 6 mps 695 mmHg 11%
14:00 +27°C° 0 mm 7 mps 695 mmHg 9%
15:00 +27°C° 0 mm 7 mps 695 mmHg 10%
16:00 +26°C° 0 mm 7 mps 694 mmHg 11%
17:00 +26°C° 0 mm 7 mps 694 mmHg 12%
18:00 +23°C° 0 mm 6 mps 694 mmHg 11%
19:00 +22°C° 0 mm 5 mps 695 mmHg 11%
20:00 +21°C° 0 mm 4 mps 695 mmHg 10%
21:00 +20°C° 0 mm 3 mps 695 mmHg 12%
22:00 +19°C° 0 mm 2 mps 695 mmHg 14%
23:00 +19°C° 0 mm 1 mps 695 mmHg 16%

Tomorrow, 16 April, Friday

Time Temperature Precipitation Wind Pressure Humidity
00:00 +18°C° 0 mm 1 mps 694 mmHg 17%
01:00 +18°C° 0 mm 1 mps 694 mmHg 18%
02:00 +16°C° 0 mm 1 mps 694 mmHg 19%
03:00 +15°C° 0 mm 0 mps 694 mmHg 19%
04:00 +15°C° 0 mm 0 mps 694 mmHg 20%
05:00 +15°C° 0 mm 0 mps 694 mmHg 20%
06:00 +16°C° 0 mm 0 mps 694 mmHg 18%
07:00 +17°C° 0 mm 0 mps 695 mmHg 16%
08:00 +19°C° 0 mm 0 mps 695 mmHg 14%
09:00 +22°C° 0 mm 1 mps 695 mmHg 13%
10:00 +23°C° 0 mm 1 mps 695 mmHg 11%
11:00 +24°C° 0 mm 1 mps 695 mmHg 10%
12:00 +25°C° 0 mm 2 mps 694 mmHg 9%
13:00 +25°C° 0 mm 2 mps 694 mmHg 9%
14:00 +26°C° 0 mm 3 mps 694 mmHg 8%
15:00 +25°C° 0 mm 4 mps 694 mmHg 9%
16:00 +25°C° 0 mm 5 mps 694 mmHg 11%
17:00 +23°C° 0 mm 5 mps 693 mmHg 12%
18:00 +22°C° 0 mm 4 mps 694 mmHg 13%
19:00 +21°C° 0 mm 3 mps 694 mmHg 15%
20:00 +20°C° 0 mm 2 mps 694 mmHg 16%
21:00 +19°C° 0 mm 2 mps 694 mmHg 17%
22:00 +20°C° 0 mm 1 mps 694 mmHg 18%
23:00 +19°C° 0 mm 1 mps 694 mmHg 19%

Day after tomorrow, 17 April, Saturday

Time Temperature Precipitation Wind Pressure Humidity
00:00 +18°C° 0 mm 1 mps 694 mmHg 20%
01:00 +16°C° 0 mm 1 mps 693 mmHg 20%
02:00 +16°C° 0 mm 1 mps 693 mmHg 21%
03:00 +14°C° 0 mm 0 mps 693 mmHg 22%
04:00 +14°C° 0 mm 0 mps 693 mmHg 22%
05:00 +14°C° 0 mm 0 mps 693 mmHg 23%
06:00 +15°C° 0 mm 0 mps 694 mmHg 20%
07:00 +17°C° 0 mm 0 mps 694 mmHg 18%
08:00 +19°C° 0 mm 0 mps 695 mmHg 15%
09:00 +22°C° 0 mm 1 mps 695 mmHg 14%
10:00 +23°C° 0 mm 1 mps 695 mmHg 13%
11:00 +25°C° 0 mm 1 mps 695 mmHg 11%
12:00 +26°C° 0 mm 2 mps 695 mmHg 11%
13:00 +26°C° 0 mm 2 mps 695 mmHg 10%
14:00 +27°C° 0 mm 3 mps 695 mmHg 9%
15:00 +27°C° 0 mm 4 mps 694 mmHg 9%
16:00 +27°C° 0 mm 4 mps 694 mmHg 9%
17:00 +27°C° 0 mm 5 mps 694 mmHg 8%
18:00 +26°C° 0 mm 4 mps 694 mmHg 10%
19:00 +24°C° 0 mm 3 mps 694 mmHg 11%
20:00 +22°C° 0 mm 3 mps 694 mmHg 12%
21:00 +21°C° 0 mm 3 mps 694 mmHg 13%
22:00 +20°C° 0 mm 3 mps 694 mmHg 14%
23:00 +19°C° 0 mm 2 mps 695 mmHg 16%

18 April, Sunday

Time Temperature Precipitation Wind Pressure Humidity
00:00 +18°C° 0 mm 2 mps 695 mmHg 17%
01:00 +19°C° 0 mm 1 mps 695 mmHg 18%
02:00 +18°C° 0 mm 1 mps 694 mmHg 19%
03:00 +18°C° 0 mm 1 mps 694 mmHg 19%
04:00 +16°C° 0 mm 1 mps 694 mmHg 19%
05:00 +16°C° 0 mm 2 mps 694 mmHg 18%
06:00 +18°C° 0 mm 2 mps 695 mmHg 17%
07:00 +19°C° 0 mm 2 mps 695 mmHg 16%
08:00 +20°C° 0 mm 2 mps 696 mmHg 15%
09:00 +23°C° 0 mm 2 mps 696 mmHg 14%
10:00 +24°C° 0 mm 2 mps 696 mmHg 12%
11:00 +25°C° 0 mm 3 mps 696 mmHg 10%
12:00 +26°C° 0 mm 3 mps 695 mmHg 10%
13:00 +27°C° 0 mm 4 mps 695 mmHg 9%
14:00 +27°C° 0 mm 4 mps 695 mmHg 8%
15:00 +27°C° 0 mm 5 mps 694 mmHg 8%
16:00 +27°C° 0 mm 5 mps 694 mmHg 8%
17:00 +27°C° 0 mm 6 mps 694 mmHg 8%
18:00 +26°C° 0 mm 5 mps 694 mmHg 10%
19:00 +23°C° 0 mm 4 mps 694 mmHg 12%
20:00 +22°C° 0 mm 3 mps 694 mmHg 14%
21:00 +21°C° 0 mm 3 mps 695 mmHg 16%
22:00 +20°C° 0 mm 3 mps 695 mmHg 18%
23:00 +20°C° 0 mm 2 mps 695 mmHg 20%

19 April, Monday

Time Temperature Precipitation Wind Pressure Humidity
00:00 +19°C° 0 mm 3 mps 695 mmHg 27%
01:00 +18°C° 0 mm 3 mps 695 mmHg 35%
02:00 +17°C° 0 mm 4 mps 695 mmHg 42%
03:00 +15°C° 0 mm 4 mps 696 mmHg 48%
04:00 +14°C° 0 mm 4 mps 696 mmHg 53%
05:00 +13°C° 0 mm 4 mps 696 mmHg 58%
06:00 +14°C° 0 mm 4 mps 697 mmHg 53%
07:00 +15°C° 0 mm 4 mps 697 mmHg 48%
08:00 +17°C° 0 mm 4 mps 698 mmHg 44%
09:00 +19°C° 0 mm 3 mps 698 mmHg 38%
10:00 +21°C° 0 mm 3 mps 698 mmHg 32%
11:00 +24°C° 0 mm 2 mps 698 mmHg 26%
12:00 +25°C° 0 mm 2 mps 698 mmHg 23%
13:00 +26°C° 0 mm 2 mps 697 mmHg 20%
14:00 +27°C° 0 mm 2 mps 697 mmHg 17%
15:00 +27°C° 0 mm 3 mps 697 mmHg 16%
16:00 +28°C° 0 mm 3 mps 696 mmHg 16%
17:00 +28°C° 0 mm 4 mps 696 mmHg 15%
18:00 +26°C° 0 mm 4 mps 696 mmHg 17%
19:00 +25°C° 0 mm 3 mps 696 mmHg 19%
20:00 +22°C° 0 mm 3 mps 696 mmHg 22%
21:00 +23°C° 0 mm 2 mps 696 mmHg 23%
22:00 +22°C° 0 mm 1 mps 697 mmHg 24%
23:00 +21°C° 0 mm 1 mps 697 mmHg 25%

20 April, Tuesday

Time Temperature Precipitation Wind Pressure Humidity
00:00 +21°C° 0 mm 1 mps 696 mmHg 25%
01:00 +20°C° 0 mm 1 mps 696 mmHg 26%
02:00 +20°C° 0 mm 1 mps 696 mmHg 26%
03:00 +20°C° 0 mm 1 mps 696 mmHg 26%
04:00 +19°C° 0 mm 1 mps 696 mmHg 26%
05:00 +18°C° 0 mm 2 mps 696 mmHg 26%
06:00 +20°C° 0 mm 2 mps 697 mmHg 24%
07:00 +21°C° 0 mm 2 mps 697 mmHg 21%
08:00 +24°C° 0 mm 2 mps 698 mmHg 19%
09:00 +26°C° 0 mm 1 mps 698 mmHg 17%
10:00 +27°C° 0 mm 1 mps 698 mmHg 14%
11:00 +28°C° 0 mm 1 mps 698 mmHg 12%
12:00 +29°C° 0 mm 2 mps 697 mmHg 11%
13:00 +30°C° 0 mm 2 mps 697 mmHg 10%
14:00 +31°C° 0 mm 2 mps 696 mmHg 9%
15:00 +31°C° 0 mm 3 mps 696 mmHg 9%
16:00 +33°C° 0 mm 3 mps 695 mmHg 8%
17:00 +33°C° 0 mm 4 mps 694 mmHg 8%
18:00 +30°C° 0 mm 4 mps 695 mmHg 9%
19:00 +28°C° 0 mm 5 mps 695 mmHg 10%
20:00 +26°C° 0 mm 6 mps 695 mmHg 11%
21:00 +25°C° 0 mm 4 mps 695 mmHg 13%
22:00 +24°C° 0 mm 3 mps 695 mmHg 15%
23:00 +21°C° 0 mm 2 mps 695 mmHg 16%
Show more

We Need Your Consent

Meteoprog and our Service Providers may store and access personal data such as cookies, device identifiers or other similar technologies on your device and process such data to personalise content and ads, as well as provide social media features and to analyse the traffic.

  • Store and/or access information on your device

    Cookies, device identifiers or other information can be stored or accessed on your device for the purposes indicated above.

  • Personalised ads and content, ad and content measurement, audience insights, and products development

    Ads and content can be personalised based on a profile. More data can be added to better personalise ads and content. Ad and content performance can be measured. Insights about the audience who saw the ads and content can be derived. Such data can be used to develop or improve user’s experience, systems and software.

By clicking ‘I Agree’ you will allow the use of indicated cookies, device identifiers, web beacons or other similar technologies. Your settings can be changed in the browser on your device.

For certain purposes, legitimate interests may be relied on, rather than consent. You can read more about this in our Privacy and Cookie Policy.